Location: Newark
(22.3060°N, 114.2134°E)
Time: 12:43:34
(UTC+00:00)

Vanguard 1 - All Passes

Search period start: 02 August 2021 00:00
Search period end: 12 August 2021 00:00
Orbit: 652 x 3831 km, 34.2° (Epoch: 01 August)

Date Brightness Start Highest point End Pass type
(mag) Time Alt. Az. Time Alt. Az. Time Alt. Az.
02 Aug - 02:16:42 10° W 02:20:50 37° NNW 02:26:02 10° NE daylight
02 Aug - 04:37:35 10° NW 04:42:46 31° N 04:50:56 10° ENE daylight
02 Aug - 06:57:00 10° WNW 07:05:09 67° NNE 07:20:46 10° ESE daylight
02 Aug - 09:17:17 10° WNW 09:28:44 57° SSW 09:48:39 10° SE daylight
02 Aug - 11:42:51 10° WSW 11:54:51 22° SW 12:10:07 10° S visible
03 Aug - 00:16:45 10° SW 00:21:36 65° SSE 00:26:01 10° ENE daylight
03 Aug - 02:38:07 10° WNW 02:42:05 29° N 02:47:10 10° NE daylight
03 Aug - 04:58:35 10° NW 05:04:07 35° NNE 05:13:13 10° E daylight
03 Aug - 07:17:51 10° WNW 07:26:21 82° NNE 07:42:51 10° ESE daylight
03 Aug - 09:38:44 10° W 09:50:17 45° SSW 10:09:20 10° SSE daylight
03 Aug - 12:07:39 10° WSW 12:16:59 15° SW 12:27:56 10° S visible
03 Aug - 22:18:25 10° S 22:22:14 16° SSE 22:25:20 10° ESE daylight
04 Aug - 00:37:44 10° WSW 00:42:30 75° NNW 00:47:02 10° ENE daylight
04 Aug - 02:59:32 10° WNW 03:03:25 25° N 03:08:31 10° NE daylight
04 Aug - 05:19:28 10° NW 05:25:24 42° NNE 05:35:37 10° E daylight
04 Aug - 07:38:46 10° WNW 07:47:34 81° SSW 08:04:36 10° SE daylight
04 Aug - 10:00:33 10° W 10:11:56 34° SSW 10:29:32 10° SSE daylight
04 Aug - 22:38:06 10° SSW 22:43:22 27° SSE 22:47:20 10° E daylight
05 Aug - 00:59:01 10° W 01:03:28 46° NNW 01:07:56 10° NE daylight
05 Aug - 03:20:50 10° NW 03:24:48 24° N 03:30:07 10° ENE daylight
05 Aug - 05:40:16 10° NW 05:46:35 51° NNE 05:57:56 10° E daylight
05 Aug - 07:59:46 10° WNW 08:08:51 65° SSW 08:26:00 10° SE daylight
05 Aug - 10:22:57 10° W 10:33:44 26° SSW 10:49:11 10° SSE daylight
05 Aug - 22:58:30 10° SW 23:04:24 45° SSE 23:08:43 10° ENE daylight
06 Aug - 01:20:30 10° W 01:24:34 32° NNW 01:28:48 10° NE daylight
06 Aug - 03:41:57 10° NW 03:46:09 26° N 03:52:00 10° ENE daylight
06 Aug - 06:01:03 10° NW 06:07:41 65° NNE 06:20:06 10° ESE daylight
06 Aug - 08:20:58 10° WNW 08:30:14 50° SSW 08:46:59 10° SE daylight
06 Aug - 10:46:21 10° WSW 10:55:44 19° SSW 11:07:58 10° S daylight
06 Aug - 20:59:51 10° S 21:04:15 15° SSE 21:07:43 10° ESE visible
06 Aug - 23:19:22 10° SW 23:25:21 75° SSE 23:29:48 10° ENE daylight
07 Aug - 01:42:05 10° WNW 01:45:46 25° N 01:49:45 10° NE daylight
07 Aug - 04:02:54 10° NW 04:07:27 30° NNE 04:14:05 10° ENE daylight
07 Aug - 06:21:52 10° WNW 06:28:47 84° NNE 06:42:01 10° ESE daylight
07 Aug - 08:42:27 10° W 08:51:45 38° SSW 09:07:32 10° SSE daylight
07 Aug - 11:12:06 10° SW 11:17:59 12° SSW 11:24:44 10° S visible
07 Aug - 21:19:10 10° SSW 21:25:37 24° SSE 21:30:06 10° E visible
07 Aug - 23:40:33 10° WSW 23:46:17 68° NNW 23:50:41 10° ENE daylight
08 Aug - 02:03:37 10° NW 02:07:03 21° N 02:10:52 10° NE daylight
08 Aug - 04:23:44 10° NW 04:28:37 36° NNE 04:36:16 10° E daylight
08 Aug - 06:42:45 10° WNW 06:49:54 76° SSW 07:03:36 10° SE daylight
08 Aug - 09:04:21 10° W 09:13:25 29° SSW 09:27:35 10° SSE daylight
08 Aug - 21:39:21 10° SW 21:46:51 36° SSE 21:51:41 10° E daylight
09 Aug - 00:02:02 10° W 00:07:14 44° NNW 00:11:28 10° NE daylight
09 Aug - 02:25:01 10° NW 02:28:23 20° N 02:32:17 10° NE daylight
09 Aug - 04:44:29 10° NW 04:49:43 47° NNE 04:58:22 10° E daylight
09 Aug - 07:03:47 10° WNW 07:11:07 57° SSW 07:24:50 10° SE daylight
09 Aug - 09:26:58 10° WSW 09:35:14 21° SSW 09:46:55 10° S daylight
09 Aug - 19:40:19 10° S 19:45:47 15° SSE 19:50:01 10° ESE visible
09 Aug - 22:00:03 10° SW 22:07:58 56° SSE 22:12:53 10° ENE daylight
10 Aug - 00:23:43 10° W 00:28:17 31° NNW 00:32:14 10° NE daylight
10 Aug - 02:46:10 10° NW 02:49:43 22° N 02:53:58 10° ENE daylight
10 Aug - 05:05:14 10° NW 05:10:44 64° NNE 05:20:19 10° ESE daylight
10 Aug - 07:25:01 10° W 07:32:27 42° SSW 07:45:39 10° SE daylight
10 Aug - 09:51:02 10° SW 09:57:14 14° SSW 10:04:58 10° S daylight
10 Aug - 19:59:17 10° SSW 20:07:21 22° SSE 20:12:48 10° ESE visible
10 Aug - 22:21:09 10° WSW 22:28:58 84° SSE 22:33:52 10° ENE daylight
11 Aug - 00:45:29 10° WNW 00:49:26 24° NNW 00:53:04 10° NE daylight
11 Aug - 03:07:06 10° NW 03:10:58 25° NNE 03:15:52 10° ENE daylight
11 Aug - 05:26:02 10° WNW 05:31:44 87° NNE 05:42:00 10° ESE daylight
11 Aug - 07:46:35 10° W 07:53:56 31° SSW 08:06:00 10° SSE daylight
11 Aug - 20:19:13 10° SSW 20:28:48 32° SSE 20:34:40 10° E visible
11 Aug - 22:42:35 10° WSW 22:49:56 66° NNW 22:54:41 10° NE daylight
